Helicity
26 33 41 30 39 32 34 40 30 32 29 -6 7 13 92 54 79 91 41 25 10 -9 13 12 175 200 239 254 303 290 295 263 242 231 220 189 125 84 66 53 40 32 17 12
21 25 68 30 29 31 33 30 7 12 18 21 43 99 63 69 31 33 65 155 159 85 115 73 61 219 270 355 379 358 324 324 268 250 231 231 231 108 79 55 50 46 37 28
39 9 16 36 26 24 27 38 22 22 40 35 66 82 81 37 57 128 121 112 217 212 189 135 60 127 247 319 397 430 393 361 312 287 302 265 211 155 75 50 32 29 25 22
16 1 26 28 20 41 22 50 43 22 39 75 113 47 40 36 55 88 120 169 229 269 271 239 151 83 127 207 292 345 382 394 348 368 290 214 193 106 120 93 51 19 22 32
12 37 35 30 24 41 25 40 32 46 43 48 87 130 42 52 66 62 92 118 158 218 247 265 263 204 120 78 150 259 332 347 352 385 326 259 218 214 226 195 71 52 34 65
42 23 40 32 28 33 27 48 61 80 69 52 43 97 40 42 19 39 44 83 100 132 177 219 259 305 274 157 93 172 267 298 336 349 362 313 251 254 232 205 176 140 134 104
71 60 70 61 67 53 76 78 76 79 82 53 67 72 33 122 94 75 89 105 92 83 102 117 152 212 283 288 173 78 143 182 277 313 316 315 292 281 246 221 208 201 164 168
122 128 103 82 64 65 55 68 95 100 95 92 82 84 126 178 171 148 133 104 95 94 80 87 88 94 136 183 229 173 63 48 111 199 251 292 303 318 290 265 259 232 226 204
116 77 74 66 61 63 73 90 51 94 92 111 112 192 302 233 237 211 173 157 99 58 44 27 44 63 85 115 146 156 199 145 47 26 95 179 220 265 286 289 289 262 241 225
89 93 73 66 74 69 64 54 110 121 131 143 166 222 190 190 187 175 165 109 78 60 66 55 47 60 84 118 155 194 181 160 139 94 24 20 83 176 238 269 256 263 241 229
99 104 85 104 108 92 110 113 118 119 127 153 169 219 156 231 193 147 122 88 63 55 26 20 35 41 51 90 134 168 227 227 229 177 103 50 16 76 177 228 233 237 240 252
119 124 109 78 86 92 114 146 160 151 131 136 135 184 190 270 315 210 163 116 70 22 1 1 11 32 61 87 132 156 184 201 217 216 154 98 66 54 52 120 185 241 261 264
135 142 129 128 160 199 247 202 178 131 123 112 145 165 299 345 351 313 185 119 82 73 73 50 59 66 57 72 118 155 161 181 181 180 180 156 134 81 75 88 99 136 195 224
89 162 167 168 199 179 181 216 175 133 136 125 118 180 307 324 281 226 153 77 47 25 11 26 36 51 61 81 104 134 162 137 142 151 156 149 137 122 112 102 83 86 116 135
143 169 174 162 120 99 87 84 103 137 132 146 152 200 225 220 187 128 96 119 93 19 -2 24 61 69 63 96 78 68 98 97 109 113 112 122 102 75 91 128 131 127 88 72
183 168 165 114 152 153 126 206 157 122 149 149 213 203 201 216 206 190 175 140 100 41 64 65 69 70 83 80 37 40 34 56 86 86 75 79 59 46 66 96 122 114 124 118
125 132 152 96 177 176 206 292 257 332 412 334 395 348 262 275 259 260 142 170 92 9 9 25 21 28 50 54 20 46 33 8 7 4 36 50 27 2 25 47 71 88 107 103
136 160 175 156 161 143 236 345 327 362 376 440 445 413 313 231 180 184 93 107 104 67 35 19 7 13 22 28 31 13 14 21 -14 -21 -4 19 -2 1 15 4 31 60 67 80
93 185 176 175 175 225 253 303 275 233 232 268 290 212 152 126 47 23 96 61 36 26 15 1 -8 -3 6 4 -0 3 12 10 3 14 14 16 -8 10 19 14 26 31 28 65
195 185 190 217 198 213 311 262 247 109 181 143 49 43 32 -3 51 -1 -73 -29 -4 -13 -30 -29 -26 -23 -24 -3 11 -4 -4 9 25 48 50 51 26 17 19 22 32 25 26 20
244 217 176 163 231 244 239 104 101 194 247 55 -9 -14 -26 -35 -64 -52 -41 -54 -31 -31 -29 -17 -16 -31 -11 9 26 29 38 38 52 51 49 59 72 84 54 45 60 61 58 37
203 260 277 242 270 288 90 77 137 69 32 5 -20 -41 -51 -48 -28 -11 -4 -2 -5 3 10 26 18 20 17 22 31 40 21 35 43 25 28 36 50 66 66 71 72 92 74 66
176 154 182 183 223 109 3 -47 -37 -0 5 -24 -24 -8 14 14 11 3 -7 -9 1 3 -1 13 -7 6 15 15 32 32 37 24 24 18 11 -4 1 18 30 39 54 67 73 64
102 98 143 151 102 87 43 53 33 69 56 60 56 34 9 -4 -23 -25 -26 -11 -14 -11 -13 -11 4 -3 -7 11 35 25 20 18 25 23 22 12 10 14 7 8 17 40 56 56
91 98 79 108 80 73 62 50 38 37 47 35 15 1 -12 -4 2 2 3 -1 -7 -4 11 32 31 37 46 51 52 62 59 50 39 19 21 15 3 9 19 23 34 23 33 46
158 125 137 107 56 63 55 39 79 75 36 2 -21 -37 -31 -7 -2 20 10 7 15 25 47 66 83 89 91 97 95 99 99 95 72 49 31 27 27 26 23 25 22 4 -5 3
Wind_Speed
31 28 24 27 24 24 22 23 22 16 25 40 39 44 36 38 39 43 51 66 72 72 72 71 44 38 28 19 19 25 26 29 30 14 11 27 68 66 63 58 54 50 45 33
30 20 16 19 21 23 26 33 33 13 31 43 35 32 35 41 41 41 40 36 38 45 50 54 20 26 31 28 21 19 29 26 34 16 13 34 41 66 63 59 56 48 39 30
24 23 29 24 26 29 28 28 34 31 46 29 27 34 37 39 43 43 40 34 30 33 40 47 48 15 19 21 19 20 23 25 28 15 17 32 39 56 69 69 61 54 43 33
28 32 27 31 34 34 40 29 30 33 43 29 35 25 33 37 40 42 41 37 34 35 38 40 40 37 30 25 40 26 20 16 15 16 14 15 15 66 72 68 66 59 46 37
31 31 33 38 38 35 36 37 38 31 32 37 31 24 24 32 36 39 40 39 39 39 39 40 41 39 45 53 59 47 33 24 15 16 16 17 21 30 46 55 68 62 51 32
35 39 37 34 39 36 40 42 42 34 32 35 22 24 21 26 26 32 36 39 40 40 41 41 41 38 39 45 55 57 48 36 26 17 18 18 20 29 33 42 48 67 48 23
48 39 36 37 43 38 38 44 41 38 36 33 27 28 32 19 22 27 33 37 41 43 43 44 44 43 40 39 44 54 56 61 38 24 21 20 21 27 30 36 41 48 57 52
48 47 38 37 40 42 41 39 39 42 38 36 32 30 24 19 23 26 30 33 38 44 46 46 45 43 42 39 36 35 48 63 64 50 33 29 33 41 44 47 47 48 50 54
49 47 41 39 41 41 40 39 35 42 41 41 33 28 23 19 23 27 31 34 37 40 44 47 47 46 44 43 42 40 39 42 52 65 71 58 48 50 50 50 50 49 46 51
43 53 43 43 42 39 39 39 43 40 45 43 36 25 35 23 23 26 31 34 36 39 43 46 48 48 47 46 45 46 45 44 47 51 56 66 75 68 59 59 58 56 54 51
44 43 48 46 43 47 45 43 40 39 40 45 41 41 44 26 24 25 30 33 36 40 43 45 48 50 50 50 51 50 50 50 51 53 55 58 65 67 66 65 65 63 61 56
45 46 53 52 51 48 43 43 42 49 50 45 43 42 35 29 28 30 32 35 38 41 44 47 51 53 55 55 55 55 55 55 56 56 55 54 54 56 64 69 70 68 65 62
48 46 57 54 46 42 44 44 45 45 47 53 54 46 35 32 36 42 43 44 44 46 49 52 56 59 60 61 61 60 60 60 61 61 60 59 59 59 60 62 68 71 73 74
45 49 52 59 54 55 56 60 54 50 56 55 53 39 41 43 46 48 48 44 48 51 54 57 61 64 67 68 67 66 66 65 65 65 64 64 64 64 64 63 63 65 70 74
49 58 58 61 64 64 70 73 72 68 60 61 45 42 46 48 50 49 48 52 56 57 60 66 71 74 76 76 73 72 72 72 72 71 70 70 68 69 69 69 68 68 67 70
57 60 65 68 63 64 63 64 70 65 68 64 45 49 49 51 52 54 54 59 63 63 70 76 80 81 82 80 78 80 78 78 78 76 76 76 75 74 75 74 74 73 72 72
63 61 65 72 63 63 61 66 47 45 51 52 57 52 54 60 60 61 58 67 69 71 78 83 84 83 83 85 85 86 85 83 81 81 83 82 80 79 81 80 79 79 79 78
55 55 57 69 64 73 41 41 37 39 44 43 48 57 60 62 60 58 56 71 78 81 85 85 86 89 90 89 87 87 88 87 85 88 86 85 85 86 87 85 85 84 83 83
34 45 58 64 62 51 48 52 54 54 50 51 60 58 56 60 59 61 70 77 82 86 87 89 88 90 91 93 91 91 92 91 92 92 91 89 89 93 92 92 92 89 89 89
35 39 49 53 65 71 55 54 59 40 61 59 57 58 64 69 85 83 81 84 87 87 88 93 93 93 93 95 93 95 97 97 97 95 94 95 94 96 96 95 95 92 92 93
54 51 57 61 66 59 52 54 53 61 62 65 57 65 70 77 77 85 87 87 87 91 96 96 95 96 96 97 97 100 100 100 100 97 98 96 95 98 95 96 95 96 97 96
57 61 58 56 62 69 48 51 63 61 63 60 64 68 76 79 82 83 85 90 94 97 98 96 99 96 93 92 94 97 97 96 98 100 101 101 100 98 96 98 99 99 98 100
65 54 61 57 60 62 53 67 66 54 63 62 65 70 71 78 83 90 95 97 97 100 100 99 100 101 98 96 95 105 104 102 102 102 102 100 100 100 100 100 101 100 98 98
57 52 60 70 64 70 78 68 52 58 57 58 63 69 73 85 87 91 92 95 98 99 101 100 102 105 105 100 102 102 102 105 107 111 110 109 108 105 101 100 99 99 98 99
58 62 69 70 72 63 53 53 60 50 49 58 63 68 74 81 86 89 93 93 94 95 96 98 101 102 104 102 103 101 103 103 107 106 105 105 105 105 107 106 103 102 99 97
53 59 60 67 57 61 61 59 48 55 61 63 69 71 72 78 83 86 88 89 92 94 93 93 93 95 96 96 97 96 90 91 98 102 101 101 101 99 100 102 105 101 102 103
Wind_Direction
31 36 56 34 48 49 46 38 42 115 52 288 264 284 312 328 326 311 285 256 247 242 244 223 198 192 187 199 200 185 182 176 171 184 237 271 213 217 213 200 196 191 187 175
19 49 113 102 74 42 23 5 7 61 10 345 347 343 342 348 338 330 327 311 284 276 277 272 190 194 189 188 200 209 184 181 176 194 246 275 267 224 216 207 202 193 186 180
15 30 17 37 26 22 28 24 5 8 324 19 21 348 336 341 347 341 339 328 321 310 298 290 283 250 215 202 206 202 194 186 181 218 264 280 277 262 234 232 212 202 194 187
358 353 7 359 357 1 353 22 21 11 339 357 329 2 345 331 344 347 342 338 329 320 315 315 306 290 271 246 258 254 246 210 216 242 226 236 261 213 233 224 222 212 198 193
346 347 345 340 344 349 347 350 345 358 357 346 337 345 354 344 345 345 347 352 350 342 334 327 320 306 281 260 254 259 261 262 249 235 236 241 270 281 280 273 226 215 206 197
324 325 329 339 341 342 337 338 338 344 345 343 8 338 349 347 5 359 356 356 354 352 349 344 335 322 310 279 260 257 261 265 270 253 251 238 253 277 282 282 280 265 279 273
320 324 326 331 328 337 335 331 327 329 331 335 345 338 333 9 3 4 3 0 359 359 357 354 351 345 330 315 280 264 262 261 272 269 264 253 253 272 274 281 283 282 277 279
317 314 322 326 325 324 325 326 320 318 321 324 326 324 334 7 19 0 354 355 358 0 360 357 353 350 348 341 330 304 277 266 268 278 277 272 277 281 281 282 282 281 281 281
318 313 321 320 322 323 322 318 324 313 313 311 316 325 334 338 351 351 346 344 345 348 350 352 352 350 346 343 341 331 322 303 285 277 275 281 283 281 282 282 282 282 283 283
322 312 319 318 319 318 313 317 308 311 304 303 307 302 308 304 321 331 337 342 343 343 345 345 345 344 342 338 334 336 331 324 312 304 297 283 277 281 283 282 282 282 283 282
324 317 313 317 314 310 310 307 306 306 303 299 296 297 311 295 309 321 330 336 340 342 342 341 340 340 339 338 336 331 327 323 322 317 310 305 290 285 284 283 282 282 282 283
324 318 307 306 310 310 310 304 304 295 294 297 296 294 311 311 312 315 318 326 331 335 336 338 337 335 335 334 331 330 328 324 323 319 318 321 320 307 291 286 284 283 283 283
323 316 310 308 309 313 305 307 306 301 298 290 289 287 304 310 310 309 307 311 317 322 326 330 331 331 331 329 327 325 323 323 323 321 319 317 319 318 312 303 291 287 284 282
322 309 302 298 302 306 298 299 303 300 291 290 289 286 293 298 302 306 308 311 314 316 316 318 322 323 324 323 321 321 319 319 318 318 316 313 315 317 316 311 308 301 292 286
318 305 304 301 300 298 295 292 291 289 290 288 290 289 293 297 300 305 310 311 312 314 315 313 314 316 317 317 317 317 315 315 315 313 313 312 312 315 315 313 310 307 304 297
316 304 306 300 304 302 297 298 294 290 286 284 283 291 298 303 302 304 307 311 311 311 312 311 311 312 314 314 314 314 313 312 312 310 310 310 309 309 310 311 309 308 306 304
306 305 304 299 305 303 295 302 304 303 303 290 281 289 300 300 301 302 304 309 309 309 310 310 310 311 311 312 312 311 311 312 311 309 308 307 307 307 308 307 306 305 303 303
303 304 304 299 304 292 301 319 321 314 311 314 305 300 300 301 303 305 310 309 308 308 309 310 311 311 310 309 309 310 310 309 309 308 307 306 305 305 304 304 304 303 303 301
299 305 303 299 297 303 301 308 307 301 298 314 307 307 307 308 307 304 310 310 308 307 308 309 310 310 310 308 307 307 307 307 306 306 305 305 305 304 302 301 301 301 301 300
319 304 301 304 297 291 301 313 313 312 289 312 312 310 309 308 299 301 308 308 307 307 308 307 308 308 308 307 307 305 304 304 303 304 304 304 304 303 302 301 300 300 299 297
312 311 299 294 294 299 312 318 317 291 298 313 312 310 309 307 306 306 308 308 309 308 306 308 307 306 306 306 305 303 303 302 302 302 303 303 303 302 301 301 301 299 298 298
309 307 304 303 297 294 318 316 308 306 310 310 310 311 309 309 310 312 312 311 310 309 309 310 308 308 311 312 309 305 304 306 305 303 301 300 301 301 301 300 300 299 297 296
304 306 302 300 297 307 312 312 312 312 308 310 312 314 315 312 313 312 311 311 311 311 310 310 308 307 309 307 307 303 304 305 304 303 302 302 301 299 299 298 299 298 298 296
311 311 303 303 304 303 304 308 312 314 312 317 319 318 318 314 316 315 315 314 313 312 311 311 309 307 306 307 306 305 305 304 301 299 299 299 299 299 299 298 297 296 297 296
307 308 304 302 306 307 310 314 314 319 322 322 322 321 320 320 319 319 318 317 316 315 314 313 311 310 309 309 307 308 306 305 302 300 300 299 298 296 295 295 296 295 296 296
309 305 301 300 306 306 306 314 319 317 319 323 321 322 326 325 323 323 321 321 320 318 318 317 316 314 313 314 313 313 315 313 306 302 302 300 300 301 299 297 295 294 293 293